RH
17 17 18 18 21 23 19 18 18 21 26 29 28 21 14 19 22 15 17 26 20 14 16 13 14 14 13 15 19 26 30 26 26 29 34 40 39 34 33 36 36 37 39 44 45 43 45 49 54 57 56 54 55 59 60 59 58 55 55 57 59 59 60 58 52 47 45 45 46 46 47 45 42 43 42 41 41 39 35 33 32 33 33 31 32 31
19 19 21 20 19 23 22 19 20 23 24 24 24 21 17 18 22 18 19 27 23 17 18 15 14 15 14 15 18 24 31 29 26 30 35 38 40 38 36 37 36 37 42 44 44 43 46 50 55 57 56 54 53 55 59 58 55 54 52 53 57 57 59 56 48 44 46 47 49 49 48 46 46 47 46 45 44 39 35 34 36 37 36 36 36 34
19 18 23 24 21 24 25 22 22 24 23 22 20 18 19 19 21 23 24 26 23 19 19 17 16 17 17 18 20 25 32 32 29 30 34 35 38 41 39 37 36 38 42 40 37 39 44 51 57 59 55 52 50 51 54 53 53 54 51 52 57 56 54 54 51 47 47 48 48 48 46 46 48 49 49 48 44 41 40 39 40 39 37 39 40 38
22 19 22 25 26 27 26 24 21 20 21 21 20 17 18 21 20 25 29 25 20 20 18 19 22 20 19 19 20 27 34 34 30 30 34 35 38 42 40 36 36 39 41 37 34 36 43 50 56 62 58 51 48 48 50 49 50 52 52 54 57 54 49 53 60 53 43 45 48 48 48 47 47 46 44 46 45 45 44 42 44 42 39 40 41 39
25 22 22 25 27 25 22 21 17 18 19 18 19 19 19 23 22 24 31 29 24 21 18 22 28 25 22 22 21 27 34 35 32 31 35 36 38 41 40 36 35 39 40 35 33 35 42 49 53 59 62 55 49 47 48 49 50 51 53 53 52 51 50 53 64 56 40 43 46 46 49 45 41 41 41 46 47 46 45 43 44 43 41 44 43 40
26 26 25 27 26 20 18 21 18 17 20 19 18 18 19 25 28 27 28 31 29 25 19 20 25 23 24 26 24 28 34 36 36 35 36 37 38 41 36 32 35 39 39 34 33 35 41 47 50 57 63 63 59 53 49 50 52 51 50 49 45 48 51 52 63 57 42 45 46 44 47 43 41 43 45 47 45 45 44 42 44 43 43 44 44 43
25 27 27 26 25 19 18 23 22 18 19 20 17 16 19 25 31 30 27 28 28 29 26 21 20 23 29 32 28 31 36 37 38 38 37 38 40 42 35 30 36 40 39 36 33 36 39 42 49 57 60 61 62 61 54 49 53 55 53 52 48 52 54 53 63 61 46 46 46 45 47 45 46 47 46 47 46 46 43 40 41 39 39 42 43 46
23 28 28 23 22 21 20 21 24 20 17 22 22 16 17 22 27 28 27 27 26 31 34 29 23 23 35 39 31 33 36 36 38 38 39 41 44 45 36 31 37 42 43 41 36 37 38 39 45 54 56 56 59 64 62 55 56 58 58 58 58 61 61 59 67 65 52 48 47 49 49 47 49 48 48 49 48 48 44 41 41 39 41 44 46 46
23 25 25 21 19 22 22 20 23 21 16 23 28 21 16 18 21 23 23 23 25 30 35 34 27 23 34 39 34 37 38 35 36 37 39 44 48 50 42 35 38 44 49 48 43 42 41 41 45 49 53 56 59 64 67 67 68 66 64 65 63 65 68 70 74 67 55 51 50 52 51 50 52 50 48 47 44 44 43 43 46 47 47 44 43 44
26 23 21 21 19 22 24 22 22 21 16 23 28 23 17 16 18 21 20 20 25 29 32 35 32 25 31 38 37 40 40 36 38 39 39 41 46 50 45 41 45 50 54 51 48 48 46 46 47 49 52 55 58 64 69 77 85 80 75 76 70 69 73 74 74 70 61 55 53 54 54 52 53 50 47 44 39 39 40 39 43 46 47 43 40 39
28 27 23 21 21 24 25 24 25 21 18 24 27 24 21 20 21 21 20 22 29 30 29 34 36 30 33 42 40 38 41 42 43 44 41 40 45 48 46 47 52 55 57 53 50 50 49 48 50 52 55 55 56 62 67 75 86 83 75 73 71 70 71 66 66 68 65 61 56 55 54 53 50 46 43 40 35 38 40 39 42 45 48 47 42 37
28 30 25 20 21 26 26 25 24 21 19 25 28 26 25 23 22 22 21 24 31 32 30 33 37 33 35 44 42 38 41 44 44 43 42 43 48 51 50 53 57 56 56 54 50 50 52 53 56 59 60 61 59 59 63 69 76 77 69 66 66 66 66 64 62 62 62 61 58 56 55 50 42 37 37 36 35 39 42 43 46 46 47 48 47 46
27 28 24 20 21 24 26 25 22 19 19 24 26 26 30 31 29 29 28 27 27 31 34 36 39 37 36 43 46 44 43 42 41 39 38 41 44 46 49 53 57 55 55 54 49 50 56 57 60 66 67 69 68 65 70 72 71 72 69 64 64 65 65 64 61 60 60 61 59 56 53 45 35 33 36 36 38 42 44 45 47 47 48 50 53 55
28 27 24 24 24 22 23 24 26 22 20 23 23 24 32 38 37 35 33 30 28 32 36 37 42 40 35 43 49 50 46 40 40 40 38 40 40 40 43 49 58 60 57 56 52 53 59 60 63 67 64 64 65 65 70 73 72 73 71 69 69 68 69 67 61 58 56 57 59 56 52 45 37 36 39 39 41 45 47 48 48 47 50 55 59 61
29 28 26 25 25 24 20 22 30 30 22 20 21 26 36 39 38 36 34 34 32 34 39 40 40 38 37 43 44 47 46 37 38 44 42 40 41 44 46 50 60 66 64 62 58 56 59 60 62 63 60 59 61 62 65 67 70 70 69 73 77 72 70 71 66 60 55 53 55 55 51 48 46 43 42 43 45 46 47 48 48 49 55 60 61 59
32 32 30 26 25 25 22 21 28 31 29 24 20 29 39 39 38 36 35 37 35 36 43 43 37 35 40 43 39 40 45 40 42 52 50 46 48 51 52 54 58 64 65 63 61 59 60 60 59 59 60 61 59 60 62 63 66 67 63 67 74 73 70 69 67 64 61 56 54 53 50 51 51 47 46 47 47 47 46 47 50 55 59 58 54 47
35 37 36 31 27 27 26 24 23 27 35 35 27 31 39 39 39 38 37 39 35 35 41 42 38 36 39 41 39 42 49 48 49 51 50 50 47 42 46 50 52 57 61 61 62 62 60 60 58 56 57 57 54 53 55 57 60 63 61 59 66 73 70 66 66 68 66 61 56 52 50 53 52 49 50 49 47 46 44 46 53 57 58 54 47 38
37 39 40 35 31 31 29 27 25 24 32 40 38 36 38 39 38 38 41 42 36 33 34 37 39 38 38 41 43 47 52 51 50 48 47 51 47 40 41 43 45 52 56 58 64 64 62 61 59 56 57 61 60 54 48 49 51 58 62 59 62 70 70 65 66 69 68 65 59 53 52 55 55 54 55 52 48 47 45 46 52 55 54 50 42 34
41 42 42 36 35 37 32 30 30 25 26 35 41 41 41 40 38 36 37 37 37 35 31 33 36 36 38 42 44 47 51 50 52 54 54 55 53 47 44 42 43 47 49 51 56 57 57 58 57 58 62 67 68 61 52 50 48 53 61 61 60 67 70 68 68 69 68 66 63 57 58 60 60 59 57 53 49 47 48 52 54 53 49 43 36 32
46 47 46 41 40 39 35 32 31 28 25 26 32 38 41 42 41 39 35 32 35 36 35 34 37 41 45 46 46 51 55 53 54 59 61 57 54 51 48 46 45 44 45 48 50 51 52 52 53 59 63 65 69 68 64 59 54 53 60 63 61 64 70 70 70 72 70 68 66 63 63 65 64 62 56 51 49 48 54 58 54 51 45 37 34 32
47 49 52 49 44 39 37 35 31 30 30 29 28 31 36 39 40 40 40 38 36 39 40 37 42 54 57 51 51 56 60 58 57 60 61 56 52 51 50 48 46 45 45 46 48 50 51 51 52 57 60 60 64 68 66 63 61 59 63 70 67 65 68 69 70 74 74 71 69 68 67 66 64 58 51 51 51 51 55 56 52 48 42 37 38 35
48 49 53 53 49 42 39 38 35 33 35 37 35 31 31 35 38 39 40 42 41 42 42 39 46 63 63 55 56 59 58 60 61 62 59 54 52 50 49 48 47 47 47 47 48 49 49 49 49 52 56 57 57 58 58 59 60 56 61 72 73 68 68 69 72 75 77 75 73 69 65 63 60 53 50 52 52 49 50 51 49 44 38 39 40 37
51 52 53 52 49 45 43 41 39 36 35 38 40 37 35 34 36 37 37 40 41 40 41 40 46 61 63 54 54 56 57 60 63 60 53 50 51 51 51 50 49 50 49 48 47 45 45 46 45 50 59 60 58 56 56 58 59 58 62 70 73 72 70 70 71 74 77 76 72 67 63 61 59 53 50 50 47 47 50 52 51 44 37 38 38 37
52 54 54 52 50 47 44 42 40 39 38 37 38 39 41 39 38 39 39 41 41 39 41 40 42 56 61 54 54 57 60 61 59 54 48 47 48 48 49 49 48 48 47 46 46 47 49 52 52 57 64 66 65 64 64 65 66 66 66 63 64 68 70 71 71 72 73 70 67 67 65 61 56 52 51 48 46 49 53 53 53 46 40 39 37 36
54 56 55 54 55 54 51 47 43 41 40 38 38 40 41 41 43 44 44 46 46 45 45 43 48 59 59 55 59 61 60 60 56 53 51 52 52 49 48 49 50 50 47 47 51 55 59 61 61 61 63 63 65 65 66 69 71 71 68 62 62 67 70 70 70 69 69 66 65 64 60 55 54 53 53 50 47 50 53 53 54 50 46 43 38 36
56 59 58 58 60 61 61 57 52 49 45 40 41 43 43 41 43 46 46 47 48 48 44 45 57 67 63 60 65 64 62 62 61 60 60 58 57 55 53 56 57 55 51 50 54 58 61 63 63 63 62 63 64 66 67 67 67 68 68 65 65 68 69 68 67 65 64 63 62 61 57 56 56 55 55 53 52 54 53 53 54 53 49 47 42 39
58 61 63 64 66 66 66 63 59 54 50 46 44 45 46 44 45 47 47 47 48 47 45 48 57 67 69 66 66 67 70 69 66 68 66 61 62 61 58 58 58 56 54 52 53 57 59 61 61 61 63 65 66 69 69 67 65 65 65 64 64 63 63 63 62 61 61 60 60 61 61 61 59 57 56 56 57 59 58 56 57 56 53 50 48 46
59 62 63 65 68 68 67 64 62 58 53 51 51 51 49 47 46 47 48 49 49 47 52 60 62 66 72 71 66 67 73 74 71 73 70 66 66 64 59 59 59 57 55 52 53 56 59 61 60 61 64 65 67 69 70 68 67 66 65 64 64 63 61 60 60 60 61 62 62 62 63 64 62 60 59 60 62 63 61 59 61 62 59 56 54 52
55 60 62 63 66 67 66 66 65 63 61 58 59 58 54 50 50 51 51 51 50 50 59 68 70 73 75 73 68 67 72 75 74 73 71 68 67 66 64 62 60 59 58 54 52 53 57 61 62 61 62 62 63 67 69 68 65 63 62 61 62 63 62 61 62 64 65 63 63 63 66 68 66 62 62 67 72 71 66 63 64 67 66 63 60 57
55 60 62 62 64 64 64 67 67 65 65 62 61 60 57 55 56 57 57 56 55 59 67 69 71 75 73 68 66 66 71 77 76 73 72 71 69 69 68 66 64 63 60 55 53 53 54 57 60 59 58 56 55 58 63 66 64 62 59 56 56 58 61 63 67 68 68 67 66 66 68 67 63 58 59 64 69 70 67 65 65 65 67 68 65 62
58 64 63 61 63 62 59 62 66 68 68 66 62 59 58 60 61 59 60 61 62 68 71 68 67 70 66 62 64 67 72 76 76 73 72 71 70 69 69 68 66 64 61 57 54 52 51 51 52 52 51 50 51 53 56 59 59 56 54 51 50 51 54 59 63 66 68 68 66 63 62 59 55 52 52 54 56 57 57 60 62 61 62 64 65 65
60 67 67 62 62 62 59 58 60 64 68 69 67 63 61 62 63 60 59 63 67 69 67 64 66 66 62 61 64 69 75 77 75 74 72 70 69 68 68 70 67 63 61 58 53 50 48 47 47 46 45 47 51 54 55 55 55 53 50 48 47 47 50 53 55 57 59 61 60 58 57 56 55 54 52 51 52 51 50 52 55 57 57 58 61 64
57 64 66 64 63 62 62 62 63 64 68 69 68 67 65 64 62 61 60 62 65 65 65 65 64 61 60 61 65 70 74 74 73 71 71 70 67 65 66 66 64 61 59 56 52 49 49 50 49 47 44 45 47 50 52 53 53 52 50 48 47 46 47 48 50 51 51 51 51 51 52 54 55 56 54 51 50 50 49 49 51 51 51 52 53 57
58 62 64 66 66 65 66 67 69 70 71 71 69 68 68 67 64 63 64 63 62 63 64 63 60 57 59 63 67 70 71 72 72 72 72 71 69 68 68 66 64 63 60 58 57 55 53 52 53 52 50 48 48 49 50 50 50 49 48 48 47 48 48 48 48 49 50 50 49 46 45 46 48 51 51 48 46 46 47 48 49 47 46 46 47 48
60 64 63 63 65 67 69 72 73 72 70 69 69 67 67 67 65 66 68 66 64 65 65 63 61 60 60 62 66 71 75 76 76 77 77 76 74 74 73 71 70 68 67 65 62 59 58 56 55 54 54 53 51 50 50 50 51 51 50 49 49 49 48 48 48 49 52 55 53 47 44 44 45 46 47 46 46 46 47 48 49 49 48 46 45 44
58 61 60 59 62 67 73 76 75 72 67 66 66 64 65 68 67 69 72 72 70 70 70 68 66 64 63 63 66 72 79 81 82 82 82 79 77 75 75 76 75 73 73 72 69 67 67 65 63 62 61 61 59 58 58 59 60 61 63 61 60 57 54 53 54 57 62 64 61 55 51 50 49 49 48 47 47 49 50 52 54 55 55 52 49 49
55 60 61 61 65 68 72 75 75 72 69 67 65 63 63 66 67 68 70 72 73 73 73 72 71 69 69 68 68 71 74 78 81 83 83 82 81 79 79 80 79 79 80 78 75 75 74 72 73 72 71 72 72 71 71 71 70 72 73 72 69 68 67 67 67 69 72 72 70 64 58 54 53 52 52 50 48 49 51 55 57 58 58 57 55 54
53 60 64 68 70 67 65 67 69 71 71 69 66 62 60 61 63 64 65 68 69 70 72 72 71 72 71 71 72 73 73 76 79 79 79 80 82 82 81 80 80 81 83 81 79 80 79 78 78 77 76 78 78 76 76 76 76 76 76 74 74 74 75 75 73 72 72 72 70 67 62 59 59 58 57 55 53 51 52 54 55 54 54 55 54 52
53 56 60 64 65 64 62 59 61 69 76 75 69 63 60 59 59 60 62 64 64 64 66 69 70 72 71 72 73 74 75 76 75 74 75 78 80 82 81 80 79 79 79 79 79 80 82 83 81 78 77 77 75 72 72 73 73 73 73 73 74 74 75 76 74 72 71 71 69 67 65 63 63 62 60 59 57 56 55 54 53 52 52 53 53 52
55 55 55 56 57 60 62 60 64 73 78 77 72 67 62 62 62 61 63 65 63 61 63 67 69 71 73 75 75 75 76 73 69 69 71 75 77 79 78 79 78 76 75 75 73 72 75 78 77 76 75 72 67 63 63 64 64 65 64 65 67 69 70 71 70 68 66 65 64 63 61 59 58 57 58 57 55 53 51 49 48 47 47 47 47 48
61 58 57 57 58 61 63 64 70 77 77 73 71 69 66 66 65 66 67 67 66 67 68 71 72 73 75 77 76 74 75 72 68 67 68 69 73 75 74 74 74 72 73 74 71 71 72 72 73 73 71 68 64 61 59 59 58 59 59 58 59 61 61 60 59 57 55 54 53 53 52 51 50 49 48 47 47 45 43 43 41 40 39 39 39 40
65 63 58 59 62 64 64 65 71 80 79 71 68 69 70 70 70 71 72 70 70 74 77 77 77 77 78 77 73 71 73 72 70 69 68 67 69 70 69 69 68 68 69 70 70 70 68 69 71 71 67 64 63 60 58 56 54 55 54 53 54 53 50 48 46 44 42 43 44 44 45 44 42 40 39 39 40 41 43 43 42 41 40 38 36 37
69 67 62 64 68 66 65 68 75 82 81 73 70 72 73 74 76 77 78 76 76 79 80 80 79 80 78 76 73 71 71 72 71 71 69 69 69 68 69 68 67 68 67 67 69 68 64 66 68 66 62 60 57 55 53 52 51 51 50 50 50 48 45 43 41 40 40 40 39 37 36 36 36 36 37 37 37 39 40 41 42 43 42 41 39 39
66 66 67 73 75 72 75 82 83 81 79 76 76 76 74 76 78 79 81 81 81 83 83 82 81 80 79 77 75 73 72 72 72 71 69 69 68 67 68 68 68 70 69 68 68 67 64 65 66 63 62 62 59 57 55 54 55 54 52 51 51 48 46 45 44 43 43 42 40 39 38 38 38 38 38 38 37 38 38 38 40 41 41 43 44 43
56 60 66 73 73 73 82 89 86 82 80 80 80 79 77 78 79 80 82 84 84 85 85 84 82 81 81 79 77 75 75 75 74 72 70 69 69 68 68 69 71 73 72 71 69 66 63 64 64 62 62 62 60 60 59 58 58 58 56 56 55 52 51 50 48 46 45 43 42 42 42 41 41 40 39 39 38 39 38 38 39 39 39 43 48 50
49 47 52 59 62 65 73 78 79 80 81 79 80 82 83 82 83 83 83 85 86 87 87 85 83 82 83 81 79 78 78 76 75 74 72 70 70 70 70 69 70 70 70 68 66 64 63 64 63 61 61 61 60 58 58 57 56 55 53 53 52 50 50 49 47 45 45 43 42 41 40 40 40 38 38 38 37 37 36 35 36 37 38 41 47 54
44 39 43 53 58 61 66 68 68 70 73 73 73 76 78 80 83 84 83 83 83 84 84 83 82 82 82 80 78 76 76 76 75 74 73 72 72 73 72 72 73 72 70 69 68 68 66 65 63 61 58 58 56 54 53 52 50 48 48 46 46 45 45 44 43 43 42 42 41 40 39 39 38 36 35 33 32 31 30 29 29 32 35 36 41 50
49 42 44 52 58 61 63 63 61 63 66 67 66 68 70 72 76 80 82 83 83 84 84 83 82 82 81 79 77 76 76 77 78 77 75 74 73 72 71 72 71 69 68 67 65 64 60 57 55 53 51 49 48 47 46 44 44 43 43 42 42 42 42 41 41 41 40 40 39 37 36 35 34 32 30 28 27 26 24 23 22 22 25 28 30 39
46 44 48 55 61 65 65 62 60 61 63 63 64 65 67 68 71 73 75 76 78 79 80 80 79 78 77 76 74 72 70 70 70 69 65 63 61 60 60 60 58 57 56 55 54 51 48 46 44 42 41 40 38 38 38 39 39 39 39 40 39 39 39 39 39 39 38 37 36 35 34 34 33 31 28 25 25 24 22 21 19 17 18 21 24 29
40 44 49 52 59 67 69 66 64 62 62 63 62 61 63 65 65 66 67 67 67 67 67 67 67 66 65 64 63 60 58 56 55 55 54 51 49 49 49 48 48 47 46 44 42 39 36 36 36 35 34 34 35 36 38 39 39 39 39 39 39 39 39 39 39 39 38 37 37 37 36 35 35 34 33 30 28 27 26 24 23 19 18 19 22 25
45 50 54 54 59 66 69 69 67 62 62 63 60 58 61 62 60 60 60 59 58 57 55 52 52 52 51 50 49 49 47 46 45 45 45 43 41 40 39 39 40 40 38 35 33 31 32 33 34 35 36 37 38 39 40 40 41 42 41 42 42 42 42 42 42 42 42 42 41 41 41 41 40 40 40 38 36 33 31 29 28 25 21 19 19 22